NOZ21M ENML-ENGM

Flight info

Callsign NOZ21M
Flight time 0h 44m
Altitude 31000
Route BAMVA DCT OKEXA DCT BELGU
Aircraft B738/M-SADE3GHIJ1LRWXY/LB1

Departure

Time 2026-05-05 10:55
Airport Molde Airport, Årø (ENML)

Arrival

Time 2026-05-05 11:40
Airport Oslo-Gardermoen International Airport (ENGM)
Time Latitude Longitude Altitude Speed Heading
2026-05-05 10:28 62.74561 7.25904 22 ft 0 kts 340°
2026-05-05 10:48 62.74554 7.25910 24 ft 4 kts 345°
2026-05-05 10:48 62.74530 7.25912 22 ft 4 kts 32°
2026-05-05 10:48 62.74516 7.25874 25 ft 2 kts 71°
2026-05-05 10:48 62.74515 7.25872 21 ft 2 kts 71°
2026-05-05 10:51 62.74517 7.25884 25 ft 4 kts 71°
2026-05-05 10:51 62.74534 7.25992 21 ft 10 kts 71°
2026-05-05 10:51 62.74531 7.26104 20 ft 8 kts 140°
2026-05-05 10:51 62.74481 7.26178 18 ft 9 kts 116°
2026-05-05 10:52 62.74495 7.26349 18 ft 17 kts 71°
2026-05-05 10:52 62.74547 7.26685 20 ft 28 kts 71°
2026-05-05 10:52 62.74610 7.27084 19 ft 28 kts 71°
2026-05-05 10:52 62.74671 7.27469 18 ft 26 kts 71°
2026-05-05 10:53 62.74727 7.27829 18 ft 24 kts 71°
2026-05-05 10:53 62.74780 7.28163 19 ft 23 kts 71°
2026-05-05 10:53 62.74828 7.28461 18 ft 17 kts 70°
2026-05-05 10:53 62.74849 7.28670 16 ft 13 kts 89°
2026-05-05 10:54 62.74868 7.28753 16 ft 4 kts 335°
2026-05-05 10:54 62.74864 7.28698 19 ft 4 kts 251°
2026-05-05 10:54 62.74851 7.28615 19 ft 17 kts 251°
2026-05-05 10:54 62.74729 7.27844 19 ft 89 kts 251°
2026-05-05 10:55 62.74462 7.26170 89 ft 137 kts 252°
2026-05-05 10:55 62.74154 7.24194 801 ft 139 kts 251°
2026-05-05 10:55 62.73846 7.22179 1623 ft 144 kts 247°
2026-05-05 10:55 62.73482 7.19987 2133 ft 169 kts 248°
2026-05-05 10:56 62.73074 7.17377 2510 ft 191 kts 249°
2026-05-05 10:56 62.72642 7.14555 3112 ft 199 kts 249°
2026-05-05 10:56 62.72189 7.11653 3911 ft 203 kts 249°
2026-05-05 10:56 62.71720 7.08735 4786 ft 206 kts 245°
2026-05-05 10:57 62.70813 7.06400 5590 ft 210 kts 211°
2026-05-05 10:57 62.69399 7.05370 6317 ft 220 kts 190°
2026-05-05 10:57 62.67876 7.05735 7102 ft 231 kts 165°
2026-05-05 10:57 62.66514 7.07740 7814 ft 247 kts 133°
2026-05-05 10:58 62.65756 7.11155 8533 ft 259 kts 105°
2026-05-05 10:58 62.65564 7.15096 9231 ft 266 kts 92°
2026-05-05 10:58 62.65557 7.19162 9909 ft 275 kts 90°
2026-05-05 10:58 62.65581 7.23483 10190 ft 298 kts 90°
2026-05-05 10:59 62.65603 7.28162 10417 ft 323 kts 90°
2026-05-05 10:59 62.65613 7.33200 10805 ft 340 kts 90°
2026-05-05 10:59 62.65610 7.38384 11579 ft 344 kts 90°
2026-05-05 10:59 62.65596 7.43597 12485 ft 345 kts 90°
2026-05-05 11:00 62.65573 7.48833 13356 ft 349 kts 90°
2026-05-05 11:00 62.65544 7.54138 14177 ft 353 kts 90°
2026-05-05 11:00 62.65512 7.59516 14969 ft 357 kts 90°
2026-05-05 11:00 62.65477 7.64952 15788 ft 361 kts 90°
2026-05-05 11:01 62.65439 7.70423 16609 ft 365 kts 90°
2026-05-05 11:01 62.65397 7.75979 17409 ft 369 kts 90°
2026-05-05 11:01 62.65353 7.81607 18188 ft 374 kts 90°
2026-05-05 11:01 62.65306 7.87290 18884 ft 378 kts 90°
2026-05-05 11:02 62.65256 7.93029 19616 ft 381 kts 91°
2026-05-05 11:02 62.65205 7.98816 20326 ft 384 kts 91°
2026-05-05 11:02 62.65150 8.04658 21025 ft 388 kts 91°
2026-05-05 11:02 62.65091 8.10551 21688 ft 392 kts 91°
2026-05-05 11:03 62.64724 8.16339 22327 ft 395 kts 109°
2026-05-05 11:03 62.63473 8.21598 23039 ft 394 kts 129°
2026-05-05 11:03 62.61519 8.25742 23589 ft 395 kts 143°
2026-05-05 11:03 62.59357 8.29500 24025 ft 401 kts 144°
2026-05-05 11:04 62.57160 8.33282 24397 ft 408 kts 144°
2026-05-05 11:04 62.54915 8.37153 24706 ft 416 kts 144°
2026-05-05 11:04 62.52644 8.41093 25174 ft 419 kts 144°
2026-05-05 11:04 62.50365 8.45067 25652 ft 422 kts 144°
2026-05-05 11:05 62.48064 8.49090 26078 ft 427 kts 144°
2026-05-05 11:05 62.45751 8.53140 26517 ft 430 kts 144°
2026-05-05 11:05 62.43421 8.57216 27048 ft 431 kts 144°
2026-05-05 11:05 62.41094 8.61284 27650 ft 431 kts 145°
2026-05-05 11:06 62.38764 8.65349 28192 ft 432 kts 145°
2026-05-05 11:06 62.36425 8.69417 28712 ft 433 kts 145°
2026-05-05 11:06 62.34074 8.73496 29277 ft 434 kts 145°
2026-05-05 11:06 62.31720 8.77572 29830 ft 434 kts 145°
2026-05-05 11:07 62.29374 8.81629 30388 ft 432 kts 146°
2026-05-05 11:07 62.27035 8.85664 30844 ft 432 kts 146°
2026-05-05 11:07 62.24675 8.89721 30892 ft 438 kts 146°
2026-05-05 11:08 62.19922 8.97877 30903 ft 435 kts 146°
2026-05-05 11:08 62.15992 9.04597 30894 ft 434 kts 146°
2026-05-05 11:09 62.11268 9.12641 30901 ft 434 kts 147°
2026-05-05 11:09 62.06548 9.20643 30903 ft 434 kts 147°
2026-05-05 11:10 62.01808 9.28651 30893 ft 435 kts 147°
2026-05-05 11:10 61.97062 9.36627 30893 ft 435 kts 147°
2026-05-05 11:11 61.92301 9.44582 30885 ft 435 kts 147°
2026-05-05 11:11 61.87552 9.52497 30870 ft 434 kts 148°
2026-05-05 11:12 61.82806 9.60369 30882 ft 433 kts 148°
2026-05-05 11:12 61.78050 9.68223 30881 ft 434 kts 148°
2026-05-05 11:13 61.73587 9.75568 30885 ft 434 kts 148°
2026-05-05 11:14 61.70224 9.81086 30882 ft 435 kts 148°
2026-05-05 11:14 61.65450 9.88893 30764 ft 432 kts 148°
2026-05-05 11:14 61.63087 9.92752 30466 ft 427 kts 148°
2026-05-05 11:15 61.60756 9.96552 30092 ft 422 kts 149°
2026-05-05 11:15 61.58443 10.00309 29707 ft 418 kts 149°
2026-05-05 11:15 61.56142 10.04039 29159 ft 417 kts 149°
2026-05-05 11:15 61.53861 10.07726 28753 ft 412 kts 150°
2026-05-05 11:16 61.51608 10.11373 28373 ft 408 kts 150°
2026-05-05 11:16 61.49372 10.14993 28011 ft 404 kts 150°
2026-05-05 11:16 61.47154 10.18558 27632 ft 400 kts 150°
2026-05-05 11:16 61.44951 10.22087 27275 ft 397 kts 150°
2026-05-05 11:17 61.42763 10.25584 26897 ft 395 kts 150°
2026-05-05 11:17 61.40617 10.29014 26558 ft 392 kts 151°
2026-05-05 11:17 61.38458 10.32459 26190 ft 389 kts 151°
2026-05-05 11:17 61.36312 10.35880 25845 ft 387 kts 151°
2026-05-05 11:18 61.34184 10.39266 25494 ft 384 kts 151°
2026-05-05 11:18 61.32064 10.42632 25137 ft 382 kts 151°
2026-05-05 11:18 61.29954 10.45979 24800 ft 380 kts 151°
2026-05-05 11:18 61.27861 10.49295 24450 ft 378 kts 151°
2026-05-05 11:19 61.25770 10.52596 24080 ft 376 kts 152°
2026-05-05 11:19 61.23690 10.55866 23734 ft 373 kts 154°
2026-05-05 11:19 61.21458 10.58203 23339 ft 348 kts 176°
2026-05-05 11:19 61.19134 10.58812 22925 ft 328 kts 192°
2026-05-05 11:20 61.16923 10.58236 22544 ft 316 kts 199°
2026-05-05 11:20 61.14776 10.57401 22173 ft 313 kts 200°
2026-05-05 11:20 61.12641 10.56531 21850 ft 312 kts 200°
2026-05-05 11:20 61.10510 10.55664 21491 ft 312 kts 199°
2026-05-05 11:21 61.08378 10.54813 21168 ft 313 kts 199°
2026-05-05 11:21 61.06228 10.53968 20831 ft 315 kts 198°
2026-05-05 11:21 61.04077 10.53136 20470 ft 314 kts 198°
2026-05-05 11:21 61.01937 10.52331 20130 ft 313 kts 195°
2026-05-05 11:22 60.99725 10.52266 19760 ft 325 kts 180°
2026-05-05 11:22 60.97422 10.52874 19454 ft 342 kts 178°
2026-05-05 11:22 60.95035 10.53559 19083 ft 350 kts 177°
2026-05-05 11:22 60.92612 10.54271 18711 ft 352 kts 176°
2026-05-05 11:23 60.90191 10.54985 18332 ft 350 kts 178°
2026-05-05 11:23 60.87784 10.55686 17948 ft 349 kts 177°
2026-05-05 11:23 60.85385 10.56374 17567 ft 347 kts 177°
2026-05-05 11:23 60.83004 10.57048 17219 ft 344 kts 177°
2026-05-05 11:24 60.80639 10.57711 16868 ft 342 kts 177°
2026-05-05 11:24 60.78292 10.58365 16521 ft 339 kts 176°
2026-05-05 11:24 60.75959 10.59013 16175 ft 337 kts 176°
2026-05-05 11:24 60.73632 10.59657 15835 ft 336 kts 176°
2026-05-05 11:25 60.71325 10.60293 15488 ft 335 kts 176°
2026-05-05 11:25 60.69027 10.60925 15163 ft 333 kts 176°
2026-05-05 11:25 60.66726 10.61557 14803 ft 333 kts 175°
2026-05-05 11:25 60.64439 10.62187 14480 ft 332 kts 175°
2026-05-05 11:26 60.62151 10.62815 14135 ft 331 kts 175°
2026-05-05 11:26 60.59869 10.63439 13774 ft 331 kts 175°
2026-05-05 11:26 60.57586 10.64065 13410 ft 331 kts 175°
2026-05-05 11:26 60.55313 10.64687 13068 ft 328 kts 175°
2026-05-05 11:27 60.53072 10.65301 12715 ft 323 kts 175°
2026-05-05 11:27 60.50857 10.65906 12403 ft 319 kts 175°
2026-05-05 11:27 60.48669 10.66503 12072 ft 315 kts 175°
2026-05-05 11:27 60.46507 10.67092 11732 ft 312 kts 175°
2026-05-05 11:28 60.44370 10.67671 11434 ft 307 kts 175°
2026-05-05 11:28 60.42280 10.68238 11122 ft 299 kts 175°
2026-05-05 11:28 60.40233 10.68795 10817 ft 296 kts 175°
2026-05-05 11:28 60.38201 10.69346 10502 ft 294 kts 175°
2026-05-05 11:29 60.36180 10.69889 10202 ft 292 kts 175°
2026-05-05 11:29 60.34202 10.70425 10113 ft 281 kts 176°
2026-05-05 11:29 60.32295 10.70940 9982 ft 273 kts 175°
2026-05-05 11:29 60.30419 10.71443 9688 ft 272 kts 176°
2026-05-05 11:30 60.28547 10.71943 9424 ft 272 kts 176°
2026-05-05 11:30 60.26656 10.72448 9133 ft 275 kts 176°
2026-05-05 11:30 60.24767 10.72954 8851 ft 273 kts 175°
2026-05-05 11:30 60.22890 10.73452 8563 ft 272 kts 176°
2026-05-05 11:31 60.21017 10.73955 8306 ft 270 kts 174°
2026-05-05 11:31 60.19163 10.74453 8045 ft 268 kts 175°
2026-05-05 11:31 60.17315 10.74949 7756 ft 268 kts 174°
2026-05-05 11:31 60.15487 10.75437 7431 ft 268 kts 175°
2026-05-05 11:32 60.13646 10.75930 7148 ft 266 kts 175°
2026-05-05 11:32 60.11814 10.76417 6875 ft 264 kts 175°
2026-05-05 11:32 60.09996 10.76900 6603 ft 263 kts 175°
2026-05-05 11:32 60.08190 10.77380 6309 ft 258 kts 175°
2026-05-05 11:33 60.06443 10.77845 6084 ft 249 kts 175°
2026-05-05 11:33 60.04748 10.78294 5860 ft 242 kts 175°
2026-05-05 11:33 60.03157 10.79253 5647 ft 241 kts 149°
2026-05-05 11:33 60.01907 10.81412 5410 ft 236 kts 136°
2026-05-05 11:34 60.00760 10.83774 4995 ft 239 kts 135°
2026-05-05 11:34 59.99635 10.86146 4842 ft 228 kts 133°
2026-05-05 11:34 59.98916 10.88821 4710 ft 215 kts 99°
2026-05-05 11:34 59.99053 10.91656 4520 ft 203 kts 67°
2026-05-05 11:35 59.99573 10.94262 4215 ft 204 kts 64°
2026-05-05 11:35 60.00262 10.96624 4076 ft 188 kts 36°
2026-05-05 11:35 60.01379 10.97533 4154 ft 172 kts
2026-05-05 11:35 60.02604 10.98196 3878 ft 185 kts 12°
2026-05-05 11:36 60.03837 10.98906 3666 ft 186 kts 12°
2026-05-05 11:36 60.05085 10.99634 3397 ft 187 kts 12°
2026-05-05 11:36 60.06324 11.00354 3153 ft 184 kts 12°
2026-05-05 11:36 60.07539 11.01058 2929 ft 180 kts 11°
2026-05-05 11:37 60.08704 11.01731 2714 ft 168 kts 12°
2026-05-05 11:37 60.09800 11.02361 2488 ft 157 kts 11°
2026-05-05 11:37 60.10820 11.02952 2272 ft 147 kts 10°
2026-05-05 11:37 60.11812 11.03523 2069 ft 150 kts 12°
2026-05-05 11:38 60.12824 11.04104 1893 ft 152 kts 11°
2026-05-05 11:38 60.13858 11.04701 1679 ft 156 kts 11°
2026-05-05 11:38 60.14905 11.05305 1426 ft 156 kts 10°
2026-05-05 11:38 60.15936 11.05899 1253 ft 153 kts 11°
2026-05-05 11:39 60.16970 11.06498 1034 ft 155 kts 14°
2026-05-05 11:39 60.18003 11.07092 837 ft 156 kts 13°
2026-05-05 11:39 60.19031 11.07681 670 ft 146 kts 16°
2026-05-05 11:39 60.19841 11.08147 674 ft 91 kts 16°
2026-05-05 11:40 60.20180 11.08353 675 ft 22 kts 25°
2026-05-05 11:40 60.20254 11.08539 676 ft 14 kts 85°
2026-05-05 11:40 60.20245 11.08645 676 ft 5 kts 106°
2026-05-05 11:40 60.20236 11.08709 678 ft 5 kts 106°
2026-05-05 11:41 60.20224 11.08795 677 ft 11 kts 106°
2026-05-05 11:41 60.20163 11.08895 680 ft 13 kts 190°
2026-05-05 11:41 60.20076 11.08846 677 ft 13 kts 195°
2026-05-05 11:41 60.19991 11.08797 679 ft 13 kts 196°
2026-05-05 11:42 60.19909 11.08750 678 ft 12 kts 195°
2026-05-05 11:42 60.19828 11.08705 676 ft 12 kts 196°
2026-05-05 11:42 60.19769 11.08785 676 ft 12 kts 108°
2026-05-05 11:42 60.19746 11.08948 680 ft 12 kts 106°
2026-05-05 11:43 60.19723 11.09110 679 ft 12 kts 106°
2026-05-05 11:43 60.19703 11.09245 682 ft 8 kts 106°
2026-05-05 11:43 60.19670 11.09321 683 ft 8 kts 180°
2026-05-05 11:43 60.19618 11.09295 681 ft 8 kts 196°
2026-05-05 11:44 60.19589 11.09278 684 ft 2 kts 196°
2026-05-05 11:44 60.19586 11.09276 684 ft 0 kts 196°